Wind_Speed
16 16 16 16 18 20 18 16 15 13 12 13 15 16 16 16 17 17 17 16 16 16 17 16 15 14 14 13 13 13 13 12 11 10 10 10 10 11 12 13 13 14 14 13 14 14 15 15 16 16 16 15 15 14 14 13 13 13 14 14 14 14 14 14 14 14 14 14 15 15 15 15 14 15 16 16 17 18 19 19 20 20 21 22 23
17 17 19 19 19 21 18 16 16 17 17 18 19 19 18 18 18 18 19 20 19 18 18 17 16 16 15 15 14 14 14 13 13 12 11 10 11 11 11 12 13 14 14 14 15 15 15 16 17 17 17 16 15 14 13 12 11 11 11 11 12 12 13 13 14 14 14 15 16 17 18 18 17 17 18 18 19 19 20 21 21 22 23 23 24
19 20 20 19 18 18 17 16 18 19 20 19 19 18 17 17 18 19 22 22 21 21 20 20 19 17 16 16 15 15 15 16 16 15 15 15 15 14 13 13 14 15 15 16 17 18 18 18 19 19 19 18 17 15 14 14 13 13 12 12 12 12 12 13 14 15 15 16 16 17 18 19 19 19 20 20 21 22 22 22 23 24 24 25 26
19 20 19 18 15 15 17 20 21 19 18 17 17 17 17 18 19 21 23 23 23 23 22 21 21 19 18 18 18 18 17 18 18 18 18 18 18 17 16 16 17 18 19 20 20 20 21 21 21 21 22 21 20 20 19 18 17 17 16 15 15 14 14 14 15 15 16 17 18 18 18 19 19 19 20 21 22 23 24 25 25 26 26 27 27
20 20 20 18 17 18 20 21 21 18 18 18 18 19 19 20 20 22 23 24 24 25 24 23 22 21 21 21 21 20 20 21 21 20 20 20 20 20 19 19 20 21 23 25 25 25 24 24 24 24 24 25 24 24 24 24 23 22 20 19 18 18 18 17 17 17 18 19 20 20 20 20 20 20 20 22 23 24 25 26 26 27 29 29 30
23 23 21 19 18 19 19 19 20 20 19 19 19 20 21 21 21 22 24 25 27 27 26 26 25 24 25 25 23 23 24 25 24 24 24 24 23 23 23 23 22 22 23 24 24 23 23 23 23 24 24 25 26 27 27 27 27 26 25 23 23 22 22 21 20 20 20 21 21 21 21 21 20 20 20 21 22 24 26 27 27 28 29 31 32
26 25 22 19 18 20 21 21 20 19 19 19 19 20 22 23 22 22 23 26 29 29 27 26 27 27 27 27 27 27 27 27 26 26 26 26 26 26 26 26 26 25 23 22 20 20 21 22 24 25 24 24 25 26 27 28 29 29 28 27 27 27 26 25 24 24 23 22 22 22 22 22 22 23 23 23 24 25 26 28 30 30 30 31 32
27 25 24 23 24 25 24 20 18 18 20 20 18 18 20 22 23 22 22 25 28 30 29 26 26 28 27 28 29 29 29 28 26 25 25 26 27 28 28 28 29 28 27 26 25 25 25 25 26 26 26 26 25 26 27 29 30 30 30 31 31 31 31 31 30 29 27 26 25 25 25 25 25 26 28 28 29 29 29 29 31 32 33 33 34
28 28 28 28 28 28 24 20 20 21 21 19 18 20 21 23 25 24 24 26 27 30 31 26 25 26 26 24 24 23 24 26 26 27 28 28 30 31 32 31 31 31 32 31 31 30 30 30 29 29 29 29 29 29 30 31 32 33 34 35 36 37 37 36 36 35 34 32 32 31 31 30 30 31 32 34 34 34 34 33 33 33 34 35 36
32 30 29 27 26 26 25 24 25 26 24 22 23 25 26 27 28 27 28 30 29 29 30 28 27 28 27 25 24 23 24 26 28 30 31 32 33 34 34 33 32 32 33 33 33 33 33 33 33 33 34 33 33 33 34 35 36 37 38 38 40 41 41 41 40 40 39 38 38 38 38 38 38 38 39 39 39 39 38 37 37 36 36 36 38
35 34 33 32 30 30 29 29 30 32 32 30 30 32 31 30 30 29 30 31 31 29 30 30 31 32 31 29 29 29 30 31 32 33 33 34 35 35 35 35 35 35 35 35 36 36 37 37 37 37 37 37 37 38 38 38 39 40 40 40 41 43 44 44 44 44 43 43 43 43 43 43 44 45 45 44 43 43 42 41 40 40 39 39 40
38 37 37 36 35 33 32 32 31 32 34 34 34 36 35 33 33 33 34 36 36 35 35 35 35 34 33 32 33 33 33 33 34 35 36 37 37 38 38 39 40 41 41 41 41 40 41 41 41 40 40 39 40 40 39 40 41 41 40 40 41 42 44 44 45 45 45 45 46 46 46 47 47 48 48 47 46 45 45 45 44 43 43 43 42
39 38 37 37 36 35 35 35 34 34 35 36 36 37 37 37 36 36 37 40 41 42 42 42 39 37 37 37 36 35 34 34 35 36 38 39 39 40 41 42 43 44 45 46 45 43 43 43 43 42 41 41 41 40 39 42 44 44 43 43 43 44 45 45 45 45 45 45 46 47 47 48 48 49 49 48 48 47 46 46 46 46 46 46 46
42 41 42 42 42 40 38 36 36 36 35 35 35 36 38 38 38 39 40 41 42 42 42 41 40 39 40 39 38 37 37 38 39 40 41 42 42 42 43 44 45 46 47 47 47 46 45 45 45 45 44 44 44 43 43 43 45 46 45 45 45 45 46 46 47 48 48 49 49 49 49 48 48 48 48 48 47 47 46 46 47 48 48 48 49
46 45 44 44 44 43 40 39 39 38 37 36 36 36 37 38 39 39 40 41 42 42 42 41 41 41 40 40 39 40 41 42 43 44 45 44 44 44 44 44 45 45 46 47 48 48 47 48 48 48 48 48 48 48 47 45 44 46 47 47 47 48 48 48 50 51 51 52 52 51 50 50 49 49 49 48 48 48 48 48 48 49 49 50 50
46 46 45 44 43 43 43 42 42 41 41 41 40 40 40 40 41 41 41 41 41 41 40 41 41 42 42 42 42 43 44 45 46 47 47 46 45 45 45 45 46 46 47 47 48 49 49 49 49 49 49 49 48 48 49 49 50 52 53 53 54 53 53 53 54 54 53 53 53 52 52 52 52 52 52 51 51 51 51 51 51 52 51 51 51
45 45 44 44 43 44 44 44 44 44 45 45 45 44 44 44 44 44 44 42 42 41 41 42 43 45 46 46 45 45 46 47 48 48 48 47 46 46 46 47 47 48 48 49 49 50 50 51 51 50 49 49 49 49 49 51 53 54 55 55 56 55 56 56 56 56 55 54 54 54 55 55 56 55 55 54 54 54 54 54 55 55 54 53 53
44 43 43 43 43 43 45 45 46 48 48 48 48 47 47 47 47 47 46 46 45 45 46 47 48 48 49 48 48 47 48 48 49 50 50 50 49 49 48 48 48 48 48 49 49 50 51 51 52 52 52 52 52 52 52 53 54 55 56 56 56 56 57 57 56 56 55 55 56 56 57 57 58 57 57 57 57 57 57 57 57 57 56 56 55
45 44 45 45 45 45 47 49 50 50 50 48 48 48 48 48 49 49 49 49 50 50 51 50 50 50 51 50 48 48 49 50 50 50 51 52 52 52 51 50 49 49 49 49 49 50 50 51 52 52 53 54 54 54 54 54 55 56 56 56 56 56 56 56 56 56 56 56 56 57 57 58 58 58 59 59 60 60 60 59 59 59 58 58 58
47 47 46 47 47 47 49 49 48 47 46 45 45 46 46 47 48 50 52 52 53 53 53 51 50 50 50 49 49 51 52 52 52 52 52 52 53 53 52 51 50 50 49 49 49 49 50 50 50 51 51 51 51 51 52 52 53 53 54 54 55 55 55 56 56 56 56 56 56 57 57 58 58 59 60 61 62 62 61 61 61 61 61 61 61
51 50 49 48 48 48 49 49 47 46 46 46 47 47 47 48 49 51 52 53 54 53 52 51 50 50 50 51 53 55 55 54 53 53 52 53 53 53 52 51 50 49 49 49 49 48 48 48 48 48 48 48 48 48 48 48 49 50 51 52 53 54 54 55 55 56 56 56 56 56 57 57 58 59 60 61 61 61 61 61 61 62 62 63 63
56 55 54 53 52 51 52 52 51 50 49 49 49 49 49 49 51 51 52 53 54 54 53 53 53 52 53 55 56 57 57 56 54 53 53 53 52 52 52 51 49 49 48 48 48 48 47 48 48 48 47 47 47 47 47 47 47 48 49 50 51 52 53 53 54 55 55 55 56 56 57 57 58 59 60 60 61 61 61 61 62 62 63 64 64
59 58 58 57 57 56 55 54 54 54 53 53 52 51 51 51 52 52 52 53 54 55 56 55 55 55 56 58 60 61 60 59 56 55 54 53 52 52 51 50 49 48 48 47 47 47 47 47 47 47 47 47 47 47 47 47 47 48 48 49 50 51 51 52 52 53 54 55 55 56 56 57 58 58 59 59 60 60 61 61 61 61 61 62 62
59 60 60 60 60 61 60 58 55 53 51 52 53 53 52 52 52 52 51 51 52 54 55 55 56 57 59 61 63 63 62 60 58 56 55 54 54 53 52 50 49 48 48 47 47 46 47 47 47 47 47 46 46 47 47 47 47 47 47 47 48 49 50 50 51 52 53 53 54 55 55 56 57 57 58 58 59 59 59 59 59 59 59 58 58
61 62 63 63 63 63 64 63 60 56 53 53 54 53 53 54 55 57 57 56 56 57 58 59 60 61 63 63 62 61 60 59 58 57 56 55 55 54 53 51 50 49 48 47 47 46 46 46 46 46 46 46 46 46 46 46 46 45 45 45 46 47 48 49 49 50 51 51 52 52 53 54 55 55 56 56 57 57 58 58 58 59 59 59 59
65 65 66 66 66 65 65 65 66 64 62 62 62 62 62 62 63 63 62 62 62 63 64 64 65 65 64 62 60 59 58 57 56 56 56 56 55 54 53 52 51 50 49 48 46 45 45 45 45 46 45 45 45 46 46 45 45 44 44 45 45 46 46 47 48 49 49 49 50 51 52 53 54 54 55 56 56 57 58 59 59 60 61 61 61
69 68 68 68 68 68 67 67 67 67 67 67 68 68 69 68 66 65 65 65 65 66 66 66 65 64 62 60 59 58 56 56 55 55 56 56 55 54 53 52 51 50 49 47 45 44 44 44 44 44 44 44 45 45 44 44 45 45 45 45 45 46 46 47 47 48 48 49 49 49 50 51 51 52 53 54 55 56 57 58 58 58 59 60 60
71 70 70 70 70 69 69 69 69 69 69 69 69 69 68 66 64 63 64 64 64 65 65 64 63 62 61 60 58 57 56 55 54 54 55 54 54 52 52 51 50 49 48 46 44 43 43 43 43 43 43 43 43 43 44 44 44 45 45 45 46 46 46 46 46 46 45 46 46 46 47 48 49 50 51 52 53 54 55 56 57 57 58 58 58
71 70 70 70 70 70 70 70 69 69 68 68 68 69 67 65 63 62 61 60 61 62 62 62 61 61 60 58 57 55 54 53 52 52 52 51 50 49 49 49 49 48 46 45 44 43 42 42 42 42 42 42 42 43 43 43 44 44 44 44 44 43 43 42 42 42 42 43 44 46 47 48 49 50 51 52 53 54 55 56 56 56 56 56 56
69 69 68 68 68 68 69 68 67 66 65 65 66 67 65 63 63 64 63 61 61 60 59 58 58 59 58 56 55 53 52 51 49 48 48 47 46 45 46 47 47 46 45 44 43 42 42 41 41 41 41 42 42 42 43 43 43 42 41 40 39 38 38 39 40 41 42 44 45 47 48 49 50 51 51 52 52 53 54 54 55 54 54 54 53
70 69 69 68 67 67 67 66 65 64 64 64 64 65 64 63 63 64 63 61 59 57 55 55 55 55 54 53 52 51 50 48 46 45 44 43 42 42 44 44 44 44 44 43 43 42 41 41 41 41 41 41 41 41 41 39 38 36 34 34 34 35 36 38 39 41 43 45 46 48 49 49 50 50 50 49 49 49 50 50 50 50 50 50 50
70 70 69 69 68 68 67 66 64 62 62 62 61 60 59 59 59 59 60 59 56 53 51 50 50 50 50 49 49 48 47 45 44 42 41 40 40 41 42 42 43 43 43 42 41 41 40 41 41 41 40 39 38 36 34 31 29 28 28 29 31 33 35 37 39 42 44 45 47 48 49 48 48 47 46 45 44 43 43 43 43 43 43 42 41
69 69 69 70 69 69 68 67 65 64 63 62 61 59 58 57 56 52 51 52 52 50 47 47 47 47 46 46 46 45 44 43 42 40 39 38 38 39 40 40 41 41 41 40 40 39 40 39 39 38 36 33 30 27 24 23 22 22 24 26 29 33 35 38 40 42 44 46 47 47 46 45 43 40 39 38 37 36 35 35 34 33 33 32 32
64 65 66 67 68 68 68 67 66 65 64 63 62 60 59 59 58 54 51 52 52 49 46 45 45 45 44 44 44 43 43 42 41 39 38 38 38 38 38 39 39 38 38 38 38 38 37 36 34 31 27 23 21 19 18 17 18 20 24 28 31 33 36 38 41 43 44 45 44 42 39 36 33 31 30 29 29 28 28 27 27 27 27 27 27
55 57 58 60 62 63 64 65 65 64 64 64 63 62 60 60 59 58 57 56 55 51 47 45 44 44 44 43 42 42 42 41 40 38 38 38 38 37 37 37 37 36 36 37 36 34 32 29 25 21 18 16 15 14 14 15 18 21 25 29 32 34 37 39 42 43 43 41 37 33 30 27 25 24 24 23 23 22 22 22 23 24 24 25 26
46 48 49 51 54 56 57 59 61 61 61 61 61 61 60 59 59 58 57 56 55 52 48 45 44 43 43 42 41 40 40 40 39 39 38 38 37 37 36 35 35 34 34 32 30 27 23 19 17 15 13 12 12 12 13 16 19 22 26 30 33 35 37 40 42 42 38 33 28 25 23 22 20 20 19 18 17 18 19 20 22 23 25 26 27
37 39 40 42 45 48 50 53 55 57 57 58 58 59 58 57 56 56 56 55 54 51 48 45 43 43 42 40 40 39 39 38 38 38 38 37 36 35 34 32 31 30 28 25 21 19 16 15 14 13 12 11 10 11 13 16 19 23 27 31 33 35 38 40 39 35 29 24 22 21 20 19 18 16 15 15 16 17 20 22 23 25 27 28 29
26 28 30 33 36 39 42 45 48 51 52 53 54 55 54 52 51 52 52 52 50 48 45 43 42 41 40 39 38 37 37 36 36 36 36 35 34 31 29 28 26 23 21 18 17 16 15 14 14 13 11 10 10 11 13 16 19 23 27 31 33 36 38 37 33 28 23 21 20 19 18 16 14 13 13 15 17 19 21 22 23 24 26 27 28
16 18 21 23 26 28 31 34 37 41 44 47 48 49 48 47 46 47 47 46 45 43 41 41 40 38 38 37 36 35 34 34 34 33 32 31 28 26 24 22 20 19 18 18 18 17 16 15 15 13 11 10 10 10 13 16 19 23 27 31 33 36 36 32 26 23 22 21 19 17 14 11 11 11 13 15 17 20 20 20 20 22 23 24 24
13 13 14 15 16 17 19 22 24 28 32 35 38 40 39 38 38 39 39 39 39 38 38 38 37 36 35 33 32 31 31 31 30 29 27 25 23 21 20 18 18 18 19 18 18 17 17 16 15 13 11 9 9 10 13 17 20 23 27 31 33 35 35 28 20 18 19 18 16 14 11 9 10 11 12 15 18 18 17 18 19 21 21 22 21
10 12 13 12 12 13 13 13 15 18 22 26 29 31 31 30 30 31 31 31 32 33 34 34 33 31 30 29 28 29 29 28 26 25 23 21 19 18 18 18 18 19 18 18 18 18 17 16 15 13 10 9 9 11 14 17 20 23 27 30 33 35 35 28 19 15 14 13 12 10 9 9 10 11 12 15 17 17 16 17 19 19 20 21 21
5 9 12 12 13 14 13 11 11 13 16 19 21 23 25 28 28 27 24 24 26 28 29 28 27 26 25 25 26 27 26 24 22 21 19 18 17 18 19 19 18 18 19 19 18 18 17 16 14 12 9 9 10 12 14 17 20 23 26 29 32 34 35 31 21 14 11 10 9 8 8 10 11 10 12 14 16 17 17 17 18 18 20 21 21
14 3 7 12 14 15 15 12 11 10 12 15 18 19 19 23 26 26 23 23 24 24 23 23 22 23 23 24 24 23 21 20 20 19 19 18 18 19 19 19 19 19 19 19 18 17 16 15 13 11 9 10 11 12 14 16 19 22 25 28 31 33 35 34 26 17 11 10 9 8 9 11 11 11 12 15 16 17 17 17 17 17 19 19 20
23 18 10 6 10 12 12 11 10 10 11 15 18 18 15 17 22 24 25 24 23 22 21 21 22 22 22 22 21 20 19 19 20 19 19 18 19 19 20 20 20 19 19 18 17 17 16 15 12 10 10 11 12 12 13 16 18 21 24 27 30 32 34 35 31 22 13 10 9 9 10 11 11 11 13 16 16 16 16 15 16 16 16 16 17
20 22 21 17 12 9 8 9 11 10 9 12 16 17 16 17 20 22 22 22 21 22 22 22 22 22 21 20 18 17 18 19 20 19 18 19 19 19 20 20 19 18 18 17 17 16 16 14 12 11 11 12 12 12 13 15 17 20 22 25 28 31 33 34 34 28 19 12 10 10 10 11 10 11 13 15 15 14 14 14 15 14 13 13 15
16 18 20 20 20 18 15 13 12 11 11 13 15 17 17 18 19 19 20 21 21 22 22 21 20 20 18 17 16 17 18 19 18 18 18 19 20 20 19 18 17 17 16 16 16 16 15 13 11 11 12 12 12 12 13 15 17 18 21 23 26 29 32 33 34 32 25 16 11 10 10 10 9 10 12 13 12 13 13 13 13 13 11 11 13
16 16 16 16 17 17 16 15 14 14 14 15 14 15 16 17 18 19 19 20 20 20 20 19 18 17 17 17 17 18 18 19 18 19 20 20 19 18 16 16 15 15 15 14 15 15 14 12 11 12 13 12 12 12 14 15 16 18 19 21 24 27 30 32 33 33 29 21 13 10 9 9 9 10 11 11 11 11 12 13 13 13 11 11 12
16 16 16 15 15 14 14 13 12 12 12 12 12 13 14 15 16 16 17 18 19 19 18 18 17 17 16 17 17 17 19 20 20 20 20 18 16 15 14 14 15 14 13 13 14 14 13 12 12 13 13 13 12 13 14 15 16 17 19 20 21 24 27 30 32 33 32 27 19 12 9 8 8 9 10 10 10 10 12 13 15 14 12 11 10
15 14 14 13 12 11 10 10 9 9 9 9 10 10 11 12 13 15 16 17 18 18 17 16 16 16 16 16 17 18 20 21 20 19 17 15 13 12 12 12 13 13 12 13 13 13 13 12 13 14 14 13 13 13 14 15 16 17 18 19 20 21 23 26 29 31 32 31 26 19 13 10 9 8 8 9 10 10 11 12 13 14 13 11 8
12 12 12 12 11 11 10 9 8 7 7 7 8 9 10 12 14 15 15 16 16 16 15 15 15 16 16 18 19 20 20 19 17 15 14 12 10 10 10 11 12 13 13 13 13 13 13 13 13 14 14 14 13 13 14 15 16 17 18 19 19 20 21 23 26 28 30 31 29 26 20 14 11 9 7 7 8 10 11 11 11 11 11 9 9
10 10 10 11 11 11 11 10 9 8 8 8 9 10 11 12 13 14 14 15 15 15 15 15 16 17 19 20 20 20 18 16 15 13 11 10 10 10 11 12 13 13 13 13 14 14 14 14 14 15 15 15 14 14 14 15 15 16 18 19 19 19 19 20 22 25 27 29 29 28 25 21 15 11 10 9 8 8 9 10 11 10 8 7 7
Wind_Direction
294 294 294 291 288 288 292 291 281 268 254 251 257 263 267 270 273 275 274 269 266 265 264 263 261 262 265 269 273 273 273 273 274 277 280 285 286 284 282 279 274 272 273 277 282 286 287 286 283 281 279 278 276 275 273 272 273 274 276 277 277 277 278 278 278 277 274 272 271 271 272 272 272 273 273 273 272 271 271 269 266 263 261 261 261
293 292 293 294 290 286 286 286 277 266 262 262 261 262 264 262 264 268 268 267 265 262 260 258 257 259 261 264 268 271 270 266 262 264 270 282 290 291 291 293 290 285 282 283 285 286 286 287 287 286 283 281 278 276 273 269 267 267 268 271 274 276 277 277 277 278 277 275 273 273 274 274 275 276 276 276 275 274 274 274 274 272 270 268 266
285 284 289 295 294 289 285 287 285 273 266 269 266 262 262 259 258 260 262 265 265 262 259 254 252 253 255 258 263 265 266 264 263 266 272 283 290 288 286 294 298 294 291 291 291 289 286 284 284 285 282 280 277 273 270 266 263 263 262 263 265 267 270 272 273 274 274 272 271 272 273 273 274 276 278 279 279 278 276 273 272 272 272 272 271
279 278 283 289 289 286 282 287 289 276 265 271 269 262 261 260 257 256 258 262 265 265 263 258 253 253 255 256 256 257 260 261 263 267 272 280 286 285 284 290 296 296 294 292 290 289 286 281 278 278 276 275 274 273 272 269 267 266 265 263 263 264 266 269 272 275 278 277 275 274 275 274 274 276 278 280 280 281 280 278 276 273 271 269 269
279 279 284 286 281 282 284 286 287 276 264 265 263 258 260 262 261 258 256 258 262 264 262 256 253 257 262 262 259 258 259 260 262 267 271 275 277 276 277 281 288 294 296 292 286 283 283 277 273 273 272 271 270 270 271 271 271 270 268 267 267 265 264 265 269 273 276 277 277 277 276 276 276 277 280 281 282 282 282 281 280 278 276 273 270
283 284 287 287 284 286 289 287 283 277 269 263 260 259 261 262 262 259 258 258 259 258 255 252 254 259 263 263 262 262 262 261 262 266 271 274 276 275 277 281 286 290 293 292 285 281 280 275 273 274 275 274 271 269 269 268 268 269 269 270 270 269 266 266 269 272 274 274 275 276 277 278 279 279 280 283 286 287 287 286 284 282 281 279 276
288 290 287 284 285 290 292 286 280 277 271 267 267 266 264 264 264 262 261 262 259 253 249 251 253 254 257 262 263 262 262 261 261 264 268 271 274 276 280 284 285 284 283 282 280 281 280 278 278 279 280 279 277 274 272 269 267 265 265 266 268 269 268 268 270 273 274 274 274 276 278 280 282 283 283 284 286 288 289 289 289 288 286 284 282
288 289 284 281 284 289 291 284 274 269 269 271 271 267 264 264 264 264 266 269 262 248 243 250 254 250 250 258 264 264 263 260 260 265 269 270 272 275 277 279 279 278 275 273 274 276 277 276 277 277 278 279 279 278 276 273 271 268 266 266 267 268 268 269 270 272 273 272 271 272 275 276 279 281 284 285 286 286 286 286 286 287 288 287 286
282 282 280 280 282 286 286 281 271 264 265 273 275 268 267 266 263 259 260 264 257 242 238 244 246 243 245 253 262 268 266 263 265 269 271 271 271 273 275 275 274 274 274 274 273 272 272 272 271 271 273 274 276 276 275 275 274 273 271 271 270 270 269 268 269 270 271 271 269 269 270 272 275 278 281 283 284 284 283 282 281 280 281 282 284
276 277 277 277 277 279 279 277 272 263 261 271 274 270 268 267 263 258 252 251 249 247 249 251 245 245 253 260 264 272 274 272 272 273 273 272 272 273 274 274 273 272 273 274 274 273 271 270 269 268 269 270 271 272 272 273 273 272 272 272 271 270 269 267 267 268 269 270 269 269 269 271 274 278 280 281 282 281 280 279 278 276 275 274 276
272 273 274 274 273 273 273 271 269 265 264 265 265 266 268 265 260 255 250 249 252 253 257 259 257 258 264 267 270 275 278 276 274 273 272 272 271 271 272 273 274 275 275 276 275 274 273 272 271 271 271 271 271 271 272 272 272 272 272 271 270 269 268 267 266 266 267 268 269 269 269 271 275 279 280 280 280 279 278 277 276 274 273 271 270
271 271 273 275 275 273 271 270 267 265 265 263 262 265 269 267 260 256 254 257 260 258 258 262 266 266 267 270 274 278 279 276 275 274 273 271 271 271 272 273 274 276 278 279 278 277 276 275 276 276 275 274 273 273 274 275 275 273 272 271 269 269 269 268 268 267 267 267 268 268 269 271 275 277 278 278 278 277 276 276 275 274 272 271 269
269 269 270 273 274 273 273 274 272 268 266 265 265 268 271 270 267 264 262 263 265 264 263 264 266 266 267 271 276 278 278 277 277 278 277 276 275 274 273 273 273 275 277 278 279 279 278 277 277 277 275 275 275 274 274 275 275 274 272 270 270 271 271 271 271 269 268 268 268 269 271 273 274 275 276 276 276 275 275 275 274 274 273 272 270
267 268 270 271 271 272 273 272 270 268 267 268 271 273 273 273 271 269 267 266 265 265 263 263 264 264 267 272 276 278 279 280 281 281 280 280 278 276 274 273 274 275 276 277 278 278 277 277 276 276 275 275 275 276 276 275 275 274 273 272 271 272 272 272 271 271 270 270 271 272 273 274 274 274 274 274 274 274 273 273 273 273 273 273 272
268 269 270 269 269 269 268 266 263 263 267 273 276 276 275 274 273 270 267 265 264 264 264 265 266 267 270 275 279 282 284 284 284 283 282 280 278 277 276 275 275 275 275 276 276 276 276 276 276 276 276 276 275 276 276 275 274 273 274 274 274 273 273 272 271 271 272 273 273 274 275 275 274 273 272 272 272 272 272 273 272 272 272 272 271
267 267 268 267 266 265 264 263 262 263 267 273 276 276 275 275 274 272 269 266 265 265 267 269 271 273 276 279 283 285 286 286 285 284 282 280 277 276 276 276 276 276 275 275 276 276 276 276 276 276 277 277 276 275 274 273 272 272 274 275 275 274 273 273 273 273 273 273 273 274 274 273 272 272 272 271 271 272 272 272 272 271 271 271 269
263 264 265 265 264 264 263 262 263 264 267 271 273 273 273 273 273 273 272 270 269 269 271 274 276 277 277 279 280 283 285 286 286 285 283 281 278 276 274 274 274 274 274 274 274 275 276 276 277 277 277 277 277 276 275 274 273 274 275 275 275 275 274 274 273 273 273 272 271 271 271 271 271 272 272 272 272 272 273 272 272 271 271 270 268
260 260 261 262 263 263 263 263 264 266 268 270 271 271 271 271 272 273 273 272 272 273 275 277 277 277 277 277 278 282 286 287 287 286 285 283 281 279 277 276 275 274 274 274 274 274 274 275 276 277 277 278 278 277 277 276 276 276 276 276 275 275 275 274 274 273 272 271 270 270 270 270 271 271 272 272 272 272 272 271 270 270 270 269 268
261 259 258 260 262 262 262 263 265 267 269 270 270 270 270 271 272 271 271 271 272 274 276 277 278 278 278 277 279 284 288 288 288 287 285 283 282 281 280 279 279 278 278 278 277 277 276 276 276 276 277 277 278 278 278 277 277 277 277 276 276 275 275 274 274 273 272 271 270 269 269 269 269 270 270 270 270 270 270 269 268 268 267 267 266
260 261 260 261 262 261 261 263 264 265 267 268 269 270 271 272 271 270 269 270 271 273 275 277 278 279 278 277 279 284 288 289 289 288 286 283 281 280 279 279 280 280 280 280 280 279 278 278 278 278 278 278 278 278 278 278 278 277 277 277 276 276 275 274 274 273 272 271 271 270 269 268 268 268 267 267 267 267 267 267 267 267 267 267 266
256 256 256 257 258 259 260 260 260 262 264 266 268 269 271 271 270 269 269 269 270 271 272 275 277 277 276 276 279 283 287 289 289 287 286 284 282 279 279 279 280 280 280 279 279 279 279 279 279 279 279 280 280 280 279 279 279 278 277 276 275 275 274 274 273 273 272 272 271 270 269 269 268 267 267 267 267 266 266 266 266 266 266 267 267
256 254 253 253 254 256 258 258 259 260 262 264 266 267 268 269 269 269 269 269 270 270 271 273 275 276 277 278 280 283 285 287 287 285 284 283 282 280 279 279 279 278 278 277 278 278 279 279 279 280 280 280 281 281 281 282 281 280 280 278 277 276 275 275 274 274 273 273 272 271 271 270 269 269 268 268 268 268 267 267 267 267 268 268 269
258 257 256 255 254 256 258 259 260 262 263 263 264 264 265 265 266 267 269 269 270 271 272 274 275 277 279 281 282 284 285 285 285 284 282 281 281 280 279 278 278 277 276 276 277 277 278 279 279 280 281 281 282 282 282 283 283 283 282 282 281 279 278 277 276 275 275 274 274 273 273 272 272 272 271 271 270 270 270 270 270 271 272 272 273
258 257 256 256 256 257 258 259 261 262 262 261 260 260 260 259 259 261 264 265 267 268 270 273 274 276 279 281 282 283 283 283 283 282 281 280 279 279 278 278 277 277 276 276 276 277 278 278 279 280 280 281 281 282 282 282 283 284 284 284 283 281 280 280 279 278 277 276 276 276 275 275 274 274 273 273 272 272 272 272 273 273 274 274 274
257 256 256 255 256 257 257 258 257 256 255 253 252 251 251 252 254 257 260 262 263 265 267 270 272 274 277 278 279 279 279 279 280 279 279 278 278 278 278 278 277 276 276 276 276 277 277 278 279 280 280 281 281 281 281 281 282 284 285 284 284 283 282 281 281 280 279 278 278 277 277 276 276 275 275 274 274 273 273 273 273 273 273 273 273
256 255 255 255 256 256 257 257 257 256 254 252 252 252 253 255 257 260 262 263 263 265 266 268 270 272 274 275 275 275 276 276 277 277 276 276 275 276 276 276 276 275 275 275 276 277 278 279 279 280 280 281 280 280 280 281 282 283 284 284 284 283 283 282 282 281 280 280 279 278 277 276 276 275 275 274 274 273 273 272 272 272 272 272 272
256 255 255 255 255 255 255 256 257 257 256 255 256 257 258 259 260 261 262 263 264 265 266 267 269 271 271 272 272 273 273 273 273 274 273 273 273 273 273 273 273 274 274 276 276 277 277 278 278 278 278 278 278 279 280 280 281 282 283 283 284 283 283 283 282 281 281 280 279 278 278 277 276 275 275 274 274 273 273 272 272 272 272 272 272
258 257 256 256 256 255 255 255 255 256 257 257 258 258 259 259 260 260 261 262 263 264 266 268 270 271 271 271 272 272 272 271 271 271 270 270 270 270 270 270 271 272 273 275 276 276 276 276 276 276 276 277 277 278 279 281 281 282 283 284 284 284 285 284 284 283 282 281 280 279 279 278 277 276 276 275 275 275 275 274 274 274 274 274 274
260 259 258 257 257 257 257 256 256 256 256 256 256 257 258 259 260 261 261 262 263 266 268 269 270 271 271 272 272 272 272 272 271 270 269 268 267 267 267 268 270 272 273 275 275 275 275 275 275 275 276 277 278 279 280 282 283 283 284 285 286 286 286 286 285 285 284 283 282 281 280 279 278 278 277 277 277 277 277 277 277 276 276 276 276
260 259 259 258 257 257 257 257 257 257 256 256 256 257 258 259 261 263 263 264 265 267 268 269 269 270 270 271 271 271 271 271 271 270 267 266 265 265 265 267 269 271 274 275 275 275 275 275 276 276 277 277 278 279 281 283 284 285 286 286 287 287 287 287 287 286 285 284 284 283 282 281 280 280 280 280 280 280 280 280 279 279 279 278 278
259 259 259 258 258 258 257 257 256 256 256 256 257 258 259 259 261 263 265 266 266 266 267 267 267 267 268 269 269 269 269 269 268 267 265 264 263 263 265 267 269 271 272 274 274 275 276 276 277 277 278 278 279 281 282 283 285 286 287 287 288 288 289 289 289 288 286 286 285 284 283 283 283 284 284 283 283 282 281 281 280 280 279 278 277
257 257 257 257 257 257 257 257 256 256 255 255 256 257 258 258 260 263 265 266 265 265 265 266 266 266 266 266 266 266 266 266 266 265 264 263 263 263 265 266 267 269 270 272 273 275 276 276 277 278 279 281 281 282 283 283 284 285 288 291 293 294 294 293 292 290 289 288 287 287 287 287 288 288 287 287 285 284 282 282 281 281 280 280 279
256 256 256 256 256 256 256 256 255 255 255 255 255 255 255 257 259 260 261 262 263 263 264 265 265 265 265 264 264 263 263 263 263 264 264 264 264 264 265 266 267 268 269 271 273 274 275 276 278 279 281 281 280 280 280 281 285 290 295 299 300 300 299 297 296 294 291 290 289 289 290 290 290 290 290 288 287 285 284 284 284 284 283 282 281
256 255 255 255 255 255 255 254 254 254 254 254 254 254 254 255 256 256 255 258 262 264 263 263 264 263 263 262 262 262 261 262 263 264 265 265 265 266 266 266 267 269 270 272 273 274 276 277 278 278 277 275 274 274 277 283 293 300 305 307 307 306 304 302 299 295 293 292 292 292 292 293 292 292 290 288 287 287 287 287 287 286 285 283 283
257 255 254 253 253 253 253 253 252 252 252 252 252 253 253 254 255 255 256 258 261 263 262 261 262 261 260 259 260 260 260 262 263 265 265 266 266 266 266 267 268 270 271 272 273 274 275 275 272 268 265 264 265 271 280 292 301 306 311 314 313 311 309 306 302 299 298 298 297 296 295 296 294 292 291 289 288 289 289 290 289 288 286 285 284
257 255 253 252 251 250 250 250 250 249 249 249 250 250 251 251 252 254 255 257 259 261 261 260 259 258 257 257 258 258 259 261 263 264 265 266 266 266 266 267 269 270 271 271 271 271 267 261 254 251 250 253 260 274 287 297 305 312 317 319 317 316 314 311 307 304 303 300 297 295 296 297 298 298 297 294 291 290 291 292 293 292 290 289 287
258 256 253 252 251 251 249 248 247 246 246 246 247 248 249 249 250 251 253 254 256 257 258 257 256 255 255 256 256 256 258 260 261 262 263 264 264 265 267 268 268 268 267 265 260 252 243 238 236 237 240 247 261 278 291 302 311 317 321 323 322 322 320 315 310 306 303 299 296 296 299 303 305 304 300 296 295 295 296 297 297 296 295 294 293
261 257 253 251 250 251 250 249 247 246 244 243 243 244 245 246 247 248 249 251 252 253 254 253 253 253 253 253 255 256 257 258 258 259 260 262 263 264 265 264 262 259 253 244 234 227 225 226 227 228 232 245 264 283 299 309 314 319 324 329 329 328 325 319 312 307 305 301 298 298 301 305 305 300 297 297 299 299 299 299 299 300 300 299 298
263 255 250 248 247 248 249 249 248 245 243 242 241 241 240 241 243 245 246 247 248 248 248 249 250 250 251 252 253 254 254 254 255 256 257 259 260 260 258 254 246 236 226 219 216 217 220 221 220 222 231 248 270 292 305 311 315 321 330 335 335 332 330 324 313 306 305 303 299 299 300 300 297 294 295 299 301 300 301 304 307 308 307 306 306
262 252 243 239 239 241 244 246 244 242 239 237 237 237 235 235 239 241 241 241 242 243 243 245 246 246 248 249 249 250 250 250 250 252 253 253 252 247 240 229 219 213 211 212 214 217 218 216 216 223 236 254 279 296 305 311 318 326 334 339 339 338 337 332 318 309 308 304 298 297 297 291 293 299 302 305 306 306 309 314 316 316 317 317 317
266 249 238 234 235 235 236 239 238 233 228 226 226 227 224 222 227 234 236 235 236 237 238 240 241 242 243 242 242 242 243 242 243 244 242 238 232 222 211 205 206 210 212 214 216 218 217 214 217 228 242 261 284 296 304 315 324 330 337 341 343 344 345 341 330 319 317 310 299 298 301 303 307 311 312 312 313 315 317 320 322 325 329 331 330
321 247 233 236 240 234 229 231 234 231 224 217 213 213 210 208 211 220 226 227 228 230 231 232 232 232 230 229 230 232 233 232 232 229 222 215 210 205 201 204 210 213 214 216 218 218 215 216 222 234 249 267 284 297 309 320 327 332 337 343 347 350 352 350 342 331 327 325 316 311 319 325 323 319 317 318 320 321 321 323 328 334 339 340 339
34 40 212 218 220 216 218 227 229 217 204 194 189 191 197 200 200 202 207 213 217 219 217 215 214 213 212 215 218 220 219 218 215 208 200 200 204 205 205 209 212 212 214 217 218 216 216 220 228 239 254 270 284 300 315 323 328 332 337 342 349 355 357 356 351 339 326 324 324 322 329 333 329 323 323 327 327 325 323 326 332 338 342 345 345
47 54 75 146 191 203 213 218 204 182 174 175 174 173 180 190 193 194 198 202 204 200 195 193 195 197 199 202 206 207 206 203 198 194 195 202 207 206 206 208 210 211 215 218 217 215 218 224 232 242 258 271 285 302 315 320 326 332 336 342 351 357 360 359 356 349 331 315 313 318 328 332 331 329 333 335 333 329 328 332 336 338 343 351 353
58 60 65 75 91 117 146 160 160 157 161 168 168 169 177 187 190 189 189 187 184 180 179 182 186 189 191 195 198 197 194 192 191 194 201 207 207 206 206 208 209 212 216 218 217 218 222 228 236 247 261 272 285 301 311 316 324 331 336 342 351 358 1 2 0 357 346 326 309 314 327 332 334 338 340 340 338 338 339 339 337 337 346 0 3
68 67 68 71 76 84 96 108 117 120 126 138 148 157 167 172 171 169 169 170 169 171 175 178 180 182 185 189 192 191 189 191 196 201 205 204 202 202 204 207 210 214 218 219 220 223 228 233 242 253 262 272 284 297 307 314 323 330 336 343 350 356 360 2 3 2 357 344 322 317 326 331 336 344 345 342 344 350 353 350 343 342 354 12 14
72 69 68 71 76 81 87 93 98 102 107 115 125 137 147 152 153 155 159 162 165 168 173 176 178 180 186 191 195 195 196 198 200 200 198 196 195 197 201 208 213 215 216 219 224 229 233 239 248 256 262 271 283 294 304 314 322 329 335 343 350 356 358 0 3 4 4 358 341 323 322 329 338 346 347 344 347 358 6 7 1 356 3 19 27
80 77 74 73 74 77 82 88 93 96 99 106 115 125 134 140 145 150 156 161 166 171 176 179 181 185 191 195 196 195 194 194 192 190 189 190 192 197 205 212 215 216 219 223 229 234 239 246 253 257 262 270 282 292 302 312 321 327 333 340 349 355 358 359 360 2 6 7 1 344 326 323 334 347 348 342 341 354 8 15 14 10 9 19 34
86 90 91 90 88 86 86 87 90 92 97 106 114 121 129 139 147 154 162 168 172 175 179 183 187 190 192 191 189 186 185 184 183 183 185 189 195 204 213 218 220 223 226 229 233 239 245 250 255 259 263 270 280 290 300 310 318 325 330 337 345 352 356 357 357 359 3 8 9 5 349 326 321 337 350 345 337 344 359 12 17 17 14 13 19
84 90 95 101 106 110 112 113 117 123 131 138 141 142 148 155 160 163 168 172 175 178 183 187 189 188 186 183 179 177 177 177 179 182 188 194 202 213 223 228 230 231 233 235 238 243 248 252 256 260 264 270 278 288 298 306 314 321 326 331 339 347 352 354 356 357 359 3 8 10 6 350 328 318 327 336 336 341 350 0 9 16 17 9 359
93 99 104 109 114 119 122 125 129 132 138 149 158 163 167 170 172 174 178 181 184 186 187 187 184 180 178 176 174 173 174 177 182 188 195 203 213 223 230 234 235 236 239 242 244 247 250 255 259 261 264 269 275 284 293 302 309 316 321 326 332 338 344 349 354 356 357 358 2 6 9 7 356 335 315 309 312 323 335 343 347 353 359 355 343
Height
5723 5723 5724 5725 5724 5724 5724 5725 5726 5727 5727 5728 5728 5728 5729 5729 5729 5730 5731 5732 5733 5733 5733 5734 5734 5734 5735 5735 5735 5736 5736 5736 5737 5737 5737 5737 5737 5737 5738 5738 5737 5737 5737 5738 5738 5738 5738 5738 5738 5738 5738 5738 5738 5738 5738 5737 5737 5737 5737 5737 5737 5737 5737 5737 5737 5737 5737 5737 5737 5736 5736 5736 5736 5736 5736 5736 5736 5736 5735 5735 5735 5735 5735 5735 5735
5722 5723 5723 5723 5722 5722 5722 5723 5723 5724 5724 5724 5725 5726 5726 5726 5726 5727 5727 5728 5729 5730 5730 5731 5731 5732 5732 5733 5733 5734 5734 5734 5734 5734 5735 5735 5735 5735 5736 5735 5736 5736 5736 5736 5736 5736 5736 5736 5736 5736 5736 5736 5736 5736 5736 5735 5735 5735 5735 5735 5735 5735 5735 5735 5735 5735 5735 5735 5735 5735 5735 5735 5735 5735 5734 5734 5734 5734 5734 5733 5733 5733 5732 5732 5732
5721 5721 5721 5721 5721 5720 5720 5720 5721 5721 5721 5721 5722 5723 5724 5724 5724 5724 5723 5724 5725 5726 5727 5728 5728 5729 5729 5730 5731 5731 5731 5732 5732 5732 5733 5733 5733 5734 5734 5734 5734 5734 5734 5735 5735 5735 5735 5734 5735 5734 5734 5734 5734 5734 5734 5734 5734 5733 5733 5733 5733 5732 5732 5732 5732 5732 5732 5732 5733 5733 5732 5732 5733 5733 5733 5732 5732 5732 5732 5732 5731 5731 5730 5730 5730
5719 5719 5719 5719 5719 5718 5718 5718 5718 5718 5718 5719 5719 5720 5721 5721 5721 5721 5721 5721 5722 5722 5724 5725 5725 5726 5727 5727 5727 5728 5729 5729 5729 5730 5730 5731 5731 5731 5732 5732 5732 5732 5733 5733 5733 5733 5733 5733 5732 5732 5732 5732 5732 5732 5732 5732 5732 5732 5731 5731 5731 5730 5730 5729 5729 5729 5729 5729 5729 5730 5730 5730 5730 5730 5730 5730 5729 5729 5729 5729 5728 5728 5728 5727 5727
5716 5716 5716 5716 5716 5715 5715 5716 5716 5715 5715 5715 5716 5716 5717 5718 5719 5719 5719 5720 5720 5720 5721 5722 5722 5723 5723 5724 5724 5725 5725 5726 5727 5727 5728 5728 5729 5729 5730 5730 5730 5730 5730 5730 5730 5731 5731 5731 5730 5730 5730 5730 5730 5730 5730 5730 5729 5729 5729 5729 5728 5728 5727 5727 5726 5726 5726 5726 5726 5726 5726 5726 5727 5727 5727 5726 5726 5726 5726 5725 5725 5725 5724 5724 5724
5711 5712 5713 5712 5712 5712 5712 5713 5713 5711 5711 5711 5712 5713 5714 5715 5715 5716 5716 5717 5718 5718 5718 5718 5719 5720 5720 5720 5721 5721 5722 5722 5723 5724 5724 5725 5725 5726 5726 5727 5727 5727 5727 5727 5726 5727 5727 5728 5728 5728 5727 5727 5728 5728 5727 5727 5727 5726 5726 5726 5726 5725 5725 5725 5724 5724 5723 5723 5723 5722 5722 5723 5723 5723 5724 5724 5723 5722 5722 5721 5721 5721 5721 5720 5720
5707 5708 5709 5709 5709 5709 5709 5710 5709 5708 5707 5707 5708 5709 5710 5711 5712 5712 5713 5714 5714 5715 5716 5716 5716 5717 5717 5717 5717 5717 5717 5718 5719 5720 5720 5721 5721 5722 5722 5723 5723 5724 5724 5724 5724 5724 5724 5725 5725 5725 5725 5724 5724 5724 5724 5724 5723 5723 5723 5723 5722 5722 5722 5721 5721 5721 5720 5720 5720 5719 5719 5719 5719 5720 5720 5720 5720 5720 5719 5718 5716 5716 5716 5716 5715
5704 5705 5705 5705 5706 5706 5706 5707 5707 5706 5705 5705 5706 5706 5707 5708 5708 5709 5710 5711 5711 5712 5713 5713 5713 5714 5714 5714 5713 5713 5714 5715 5716 5717 5717 5717 5718 5718 5718 5719 5719 5720 5721 5721 5721 5721 5721 5721 5721 5721 5721 5721 5721 5720 5720 5720 5719 5719 5719 5719 5719 5718 5718 5717 5717 5717 5717 5717 5717 5716 5716 5715 5716 5716 5715 5716 5716 5716 5716 5715 5714 5712 5711 5711 5711
5700 5701 5701 5701 5702 5701 5702 5703 5703 5704 5703 5703 5704 5704 5704 5704 5705 5706 5708 5708 5707 5708 5709 5709 5709 5709 5710 5710 5710 5710 5711 5712 5713 5714 5714 5714 5714 5714 5714 5715 5715 5716 5716 5716 5717 5717 5717 5717 5717 5717 5717 5716 5716 5716 5716 5715 5715 5715 5715 5715 5714 5714 5713 5713 5713 5713 5713 5713 5712 5712 5711 5711 5711 5711 5711 5711 5711 5711 5711 5711 5711 5710 5709 5707 5706
5696 5697 5697 5697 5698 5697 5697 5698 5699 5699 5699 5700 5700 5700 5700 5701 5701 5702 5704 5703 5702 5702 5703 5703 5703 5703 5704 5705 5706 5707 5708 5709 5710 5710 5710 5710 5710 5710 5710 5711 5711 5712 5711 5711 5712 5712 5712 5712 5712 5712 5712 5712 5712 5711 5711 5711 5710 5710 5710 5710 5709 5708 5708 5708 5708 5708 5708 5708 5707 5707 5706 5706 5705 5706 5706 5706 5706 5706 5706 5705 5705 5705 5705 5704 5702
5691 5692 5692 5693 5693 5693 5693 5694 5695 5695 5695 5696 5696 5695 5696 5698 5699 5699 5700 5699 5699 5699 5698 5697 5698 5698 5699 5700 5701 5703 5704 5704 5705 5705 5705 5706 5706 5706 5705 5705 5706 5706 5706 5706 5706 5706 5706 5706 5706 5706 5707 5707 5706 5706 5706 5705 5704 5704 5704 5704 5703 5702 5702 5702 5702 5702 5702 5702 5702 5701 5701 5701 5700 5700 5700 5700 5700 5699 5699 5699 5699 5699 5699 5699 5698
5686 5687 5687 5688 5688 5687 5688 5689 5690 5690 5691 5691 5692 5691 5692 5694 5695 5695 5695 5694 5695 5695 5693 5693 5694 5694 5695 5695 5696 5698 5699 5699 5699 5700 5700 5700 5700 5700 5700 5700 5700 5700 5700 5700 5700 5700 5699 5699 5700 5700 5700 5700 5700 5700 5700 5699 5697 5697 5698 5698 5697 5696 5696 5696 5696 5696 5696 5696 5696 5695 5695 5695 5694 5693 5693 5693 5693 5692 5692 5692 5692 5692 5692 5692 5693
5681 5682 5682 5683 5683 5682 5683 5685 5685 5686 5685 5686 5686 5686 5687 5688 5689 5690 5690 5690 5689 5689 5688 5688 5690 5690 5690 5691 5691 5692 5693 5693 5693 5693 5693 5693 5693 5694 5694 5694 5694 5694 5693 5693 5693 5693 5692 5693 5693 5693 5693 5693 5693 5693 5693 5692 5690 5690 5691 5691 5690 5690 5690 5690 5690 5690 5689 5689 5689 5689 5689 5689 5688 5687 5686 5686 5685 5685 5685 5685 5684 5684 5684 5684 5685
5675 5676 5677 5677 5677 5678 5679 5681 5681 5680 5679 5679 5680 5681 5681 5682 5683 5684 5685 5684 5684 5684 5683 5684 5685 5685 5685 5685 5685 5686 5686 5686 5687 5687 5687 5687 5687 5688 5688 5688 5688 5688 5688 5687 5687 5686 5686 5686 5686 5686 5686 5686 5686 5686 5686 5685 5684 5683 5683 5683 5684 5684 5684 5684 5683 5683 5682 5682 5682 5682 5682 5681 5680 5680 5679 5678 5678 5678 5678 5678 5677 5676 5676 5676 5676
5668 5669 5670 5670 5671 5672 5673 5675 5675 5674 5673 5673 5674 5675 5675 5676 5677 5678 5679 5679 5678 5678 5678 5678 5678 5679 5679 5679 5680 5680 5680 5680 5681 5681 5681 5681 5681 5682 5682 5682 5682 5682 5681 5681 5681 5680 5680 5680 5680 5680 5680 5680 5679 5679 5678 5678 5677 5675 5675 5676 5677 5677 5677 5677 5676 5675 5675 5675 5675 5674 5674 5673 5672 5672 5671 5670 5670 5670 5670 5670 5669 5669 5669 5669 5668
5662 5662 5663 5664 5665 5666 5667 5668 5669 5669 5669 5669 5669 5669 5670 5670 5670 5671 5672 5672 5673 5672 5672 5672 5672 5673 5673 5673 5674 5674 5674 5674 5675 5675 5675 5675 5675 5675 5675 5675 5675 5675 5675 5675 5675 5674 5674 5674 5673 5673 5673 5673 5673 5672 5672 5671 5670 5669 5669 5669 5669 5669 5669 5669 5668 5668 5667 5667 5667 5666 5665 5664 5663 5663 5663 5662 5662 5662 5661 5661 5660 5660 5661 5661 5661
5655 5656 5657 5657 5658 5659 5660 5661 5662 5663 5663 5663 5664 5664 5664 5664 5664 5664 5665 5666 5666 5667 5667 5667 5667 5668 5668 5668 5669 5669 5669 5669 5668 5668 5668 5668 5669 5669 5669 5669 5669 5669 5668 5669 5668 5668 5668 5667 5667 5667 5666 5666 5666 5666 5665 5664 5663 5662 5662 5661 5661 5661 5661 5660 5660 5660 5659 5659 5658 5657 5656 5655 5655 5655 5654 5654 5654 5653 5653 5652 5651 5651 5651 5652 5652
5649 5650 5650 5651 5652 5653 5654 5654 5655 5656 5656 5657 5658 5658 5658 5658 5658 5658 5658 5658 5659 5659 5660 5661 5661 5662 5662 5662 5663 5663 5662 5662 5662 5662 5661 5662 5662 5662 5662 5662 5662 5662 5662 5662 5662 5662 5662 5661 5660 5660 5659 5659 5659 5658 5658 5657 5656 5655 5654 5654 5653 5653 5652 5652 5652 5651 5651 5650 5649 5649 5648 5647 5646 5646 5646 5645 5644 5644 5643 5643 5642 5642 5642 5642 5642
5643 5644 5644 5644 5645 5646 5647 5647 5648 5648 5649 5650 5651 5651 5651 5651 5652 5652 5652 5652 5652 5652 5653 5654 5654 5655 5655 5655 5655 5655 5655 5655 5655 5655 5655 5655 5656 5656 5656 5656 5656 5655 5655 5655 5655 5655 5654 5654 5654 5653 5652 5652 5651 5651 5650 5649 5648 5647 5646 5646 5645 5645 5644 5644 5643 5643 5642 5641 5640 5640 5639 5638 5638 5638 5637 5636 5635 5634 5633 5633 5632 5632 5632 5632 5632
5636 5637 5637 5637 5638 5638 5639 5640 5641 5641 5642 5643 5644 5644 5644 5645 5645 5645 5645 5646 5646 5646 5646 5647 5647 5647 5647 5648 5648 5648 5648 5648 5648 5648 5648 5649 5649 5649 5650 5650 5649 5649 5649 5648 5647 5647 5647 5647 5646 5646 5645 5644 5644 5643 5642 5642 5641 5640 5639 5638 5637 5636 5636 5635 5634 5634 5633 5633 5632 5631 5631 5630 5629 5628 5627 5626 5625 5624 5624 5623 5623 5622 5622 5622 5622
5628 5629 5629 5629 5630 5630 5631 5632 5633 5635 5636 5636 5637 5638 5638 5638 5638 5639 5639 5640 5640 5641 5641 5641 5642 5641 5641 5641 5641 5641 5641 5641 5641 5641 5642 5642 5642 5643 5643 5643 5643 5643 5642 5641 5641 5640 5640 5640 5639 5639 5638 5638 5637 5636 5635 5634 5634 5632 5631 5630 5629 5628 5627 5626 5626 5625 5625 5625 5624 5623 5622 5621 5621 5619 5618 5617 5616 5616 5615 5614 5614 5613 5613 5613 5612
5620 5621 5621 5622 5622 5622 5623 5624 5625 5627 5629 5630 5631 5631 5632 5632 5631 5632 5632 5633 5634 5634 5635 5635 5635 5635 5635 5635 5634 5635 5635 5635 5635 5635 5635 5636 5636 5636 5636 5636 5636 5636 5636 5635 5634 5634 5633 5633 5633 5632 5632 5631 5630 5629 5628 5627 5626 5625 5624 5622 5621 5620 5619 5619 5618 5617 5617 5616 5615 5615 5614 5613 5612 5611 5610 5609 5608 5607 5606 5606 5605 5605 5604 5603 5603
5612 5613 5614 5615 5615 5615 5616 5617 5618 5620 5622 5624 5625 5625 5625 5625 5625 5625 5626 5627 5627 5627 5628 5628 5628 5628 5627 5627 5627 5627 5627 5628 5628 5629 5629 5629 5630 5630 5630 5630 5630 5629 5629 5629 5628 5628 5627 5627 5626 5626 5626 5625 5624 5623 5622 5620 5619 5618 5617 5615 5614 5613 5612 5611 5610 5609 5609 5608 5607 5606 5605 5604 5603 5602 5601 5600 5599 5599 5598 5597 5596 5596 5595 5595 5594
5603 5605 5606 5607 5608 5608 5608 5609 5611 5613 5615 5617 5618 5618 5618 5618 5619 5619 5620 5621 5622 5622 5622 5622 5622 5621 5621 5620 5620 5620 5620 5621 5621 5622 5622 5623 5623 5623 5623 5624 5623 5623 5623 5623 5623 5622 5621 5620 5620 5620 5619 5619 5618 5617 5615 5614 5613 5612 5610 5609 5608 5606 5605 5604 5603 5602 5601 5600 5599 5598 5597 5596 5595 5594 5593 5592 5591 5590 5590 5589 5588 5587 5586 5586 5585
5595 5596 5597 5598 5599 5600 5600 5602 5603 5605 5607 5608 5609 5609 5610 5611 5611 5613 5614 5616 5616 5616 5616 5616 5615 5615 5614 5613 5613 5613 5614 5614 5614 5615 5616 5616 5616 5616 5617 5617 5617 5617 5617 5617 5617 5616 5615 5615 5614 5614 5613 5613 5612 5610 5609 5608 5607 5606 5604 5603 5601 5600 5598 5597 5596 5595 5594 5593 5592 5591 5589 5588 5587 5586 5585 5584 5583 5582 5581 5580 5579 5578 5577 5577 5576
5587 5588 5588 5589 5590 5591 5592 5593 5594 5596 5598 5599 5600 5600 5601 5602 5604 5605 5607 5608 5608 5609 5609 5609 5609 5609 5608 5607 5607 5608 5608 5608 5609 5609 5609 5609 5609 5610 5610 5610 5611 5611 5611 5611 5611 5610 5610 5609 5609 5608 5608 5607 5606 5604 5603 5602 5601 5600 5598 5597 5595 5594 5592 5591 5589 5588 5587 5586 5585 5583 5582 5580 5579 5578 5576 5575 5575 5573 5572 5571 5571 5570 5568 5567 5567
5576 5577 5579 5580 5580 5581 5582 5584 5585 5587 5588 5589 5590 5591 5592 5593 5595 5597 5598 5599 5600 5600 5601 5601 5601 5602 5602 5602 5602 5602 5603 5603 5603 5603 5603 5603 5603 5604 5604 5604 5604 5604 5605 5605 5605 5605 5604 5604 5603 5603 5602 5601 5600 5599 5598 5597 5595 5594 5592 5591 5589 5588 5586 5585 5583 5582 5581 5579 5578 5576 5574 5573 5571 5570 5568 5567 5566 5564 5562 5561 5561 5560 5559 5557 5557
5563 5565 5567 5569 5570 5571 5572 5574 5576 5577 5578 5580 5581 5581 5582 5584 5586 5587 5588 5590 5591 5591 5592 5593 5593 5593 5594 5594 5596 5596 5596 5597 5597 5597 5598 5598 5597 5598 5598 5598 5598 5599 5599 5599 5599 5599 5599 5598 5598 5597 5597 5596 5595 5594 5593 5591 5590 5588 5586 5585 5583 5582 5580 5579 5577 5575 5574 5572 5570 5569 5567 5565 5564 5562 5560 5559 5557 5556 5553 5552 5552 5551 5549 5548 5548
5550 5553 5555 5557 5558 5560 5561 5563 5566 5568 5569 5570 5571 5572 5573 5575 5576 5578 5580 5582 5582 5582 5583 5584 5584 5584 5585 5586 5588 5588 5589 5589 5590 5591 5592 5592 5592 5592 5592 5592 5592 5593 5593 5594 5594 5594 5594 5593 5593 5592 5592 5591 5590 5588 5587 5585 5584 5582 5581 5579 5578 5576 5574 5572 5571 5569 5567 5565 5563 5561 5559 5558 5556 5554 5552 5551 5549 5547 5545 5543 5542 5541 5540 5539 5539
5538 5540 5543 5545 5547 5549 5550 5552 5555 5557 5559 5559 5561 5563 5565 5567 5567 5568 5571 5573 5574 5574 5576 5576 5575 5576 5577 5578 5579 5580 5581 5582 5583 5584 5585 5585 5586 5586 5587 5587 5587 5587 5587 5588 5588 5588 5588 5588 5588 5587 5586 5585 5584 5583 5582 5580 5579 5577 5576 5574 5572 5570 5568 5566 5565 5563 5560 5558 5556 5554 5552 5550 5548 5546 5544 5543 5541 5539 5536 5534 5532 5531 5530 5529 5528
5527 5529 5531 5533 5536 5538 5539 5541 5544 5547 5549 5551 5552 5554 5556 5558 5559 5560 5562 5564 5566 5567 5568 5568 5568 5569 5570 5571 5572 5573 5574 5575 5576 5577 5578 5579 5580 5581 5581 5581 5582 5582 5582 5582 5583 5583 5583 5583 5582 5581 5581 5580 5579 5578 5577 5575 5574 5572 5570 5569 5567 5565 5563 5561 5559 5556 5554 5551 5549 5546 5544 5542 5540 5538 5536 5534 5533 5531 5528 5526 5524 5523 5521 5520 5519
5516 5519 5520 5522 5524 5527 5529 5531 5534 5537 5539 5541 5544 5546 5548 5550 5551 5553 5554 5555 5558 5559 5560 5560 5561 5562 5564 5565 5565 5567 5568 5569 5570 5571 5572 5573 5574 5575 5576 5576 5576 5576 5577 5577 5578 5578 5578 5577 5577 5576 5575 5575 5574 5573 5572 5571 5569 5568 5567 5565 5563 5561 5558 5556 5553 5550 5547 5544 5541 5539 5536 5534 5532 5530 5528 5526 5524 5522 5520 5518 5516 5515 5514 5512 5511
5505 5508 5510 5511 5513 5515 5518 5521 5524 5527 5529 5532 5535 5538 5540 5541 5544 5547 5547 5547 5549 5551 5553 5554 5555 5556 5557 5558 5559 5561 5562 5563 5564 5565 5567 5568 5568 5569 5570 5570 5571 5571 5572 5572 5573 5573 5572 5572 5572 5571 5570 5570 5569 5568 5568 5567 5566 5565 5564 5562 5560 5557 5554 5551 5547 5544 5540 5537 5534 5532 5530 5527 5525 5523 5521 5519 5517 5515 5514 5512 5510 5509 5508 5506 5505
5494 5496 5498 5500 5502 5504 5507 5511 5514 5517 5520 5522 5526 5529 5532 5534 5537 5539 5540 5540 5541 5544 5546 5548 5549 5550 5551 5552 5554 5555 5556 5557 5559 5560 5561 5562 5563 5564 5564 5565 5566 5566 5567 5567 5567 5567 5567 5567 5567 5567 5566 5566 5566 5565 5565 5564 5563 5562 5561 5558 5556 5552 5549 5545 5541 5537 5534 5531 5528 5525 5523 5521 5519 5518 5516 5514 5512 5510 5509 5507 5506 5504 5503 5502 5500
5482 5484 5487 5489 5491 5493 5496 5499 5503 5507 5510 5513 5516 5520 5523 5526 5528 5530 5532 5533 5534 5537 5540 5542 5543 5545 5546 5547 5548 5550 5551 5552 5554 5555 5556 5557 5558 5558 5559 5560 5561 5562 5562 5562 5562 5563 5563 5563 5563 5563 5563 5563 5563 5563 5562 5562 5561 5559 5557 5554 5551 5548 5544 5539 5535 5530 5527 5524 5521 5519 5517 5516 5515 5513 5511 5510 5508 5507 5506 5504 5503 5501 5500 5498 5497
5472 5474 5476 5478 5480 5483 5485 5488 5491 5495 5499 5503 5507 5510 5514 5517 5519 5522 5524 5526 5528 5530 5533 5535 5537 5539 5540 5541 5543 5544 5546 5547 5549 5550 5551 5552 5553 5553 5554 5556 5556 5557 5557 5558 5558 5559 5559 5559 5560 5560 5560 5561 5561 5561 5560 5559 5558 5556 5554 5551 5547 5543 5539 5534 5529 5525 5521 5519 5517 5515 5514 5513 5511 5510 5508 5507 5506 5504 5503 5501 5500 5498 5497 5495 5493
5464 5466 5468 5470 5471 5473 5475 5478 5481 5485 5489 5493 5497 5500 5504 5509 5512 5514 5517 5519 5522 5524 5527 5529 5531 5533 5535 5536 5538 5539 5541 5543 5544 5545 5546 5547 5548 5549 5550 5551 5552 5552 5553 5554 5554 5555 5556 5556 5557 5558 5558 5559 5559 5559 5558 5557 5555 5553 5550 5547 5543 5539 5534 5529 5524 5520 5517 5515 5514 5512 5511 5510 5509 5507 5506 5505 5503 5502 5500 5499 5497 5495 5493 5491 5489
5459 5460 5462 5463 5464 5466 5468 5470 5473 5476 5479 5483 5487 5492 5496 5501 5504 5507 5510 5512 5515 5519 5521 5524 5526 5528 5530 5532 5533 5535 5537 5538 5539 5540 5541 5542 5543 5545 5546 5546 5547 5548 5549 5550 5551 5552 5553 5554 5555 5556 5556 5557 5557 5556 5555 5554 5552 5550 5547 5544 5539 5534 5529 5524 5519 5516 5514 5513 5511 5510 5509 5508 5507 5506 5504 5503 5502 5500 5498 5496 5494 5492 5489 5487 5485
5455 5456 5457 5458 5459 5461 5462 5464 5466 5468 5472 5476 5480 5484 5489 5493 5496 5500 5503 5506 5509 5513 5516 5518 5520 5523 5525 5527 5529 5531 5532 5533 5534 5535 5536 5538 5539 5540 5541 5542 5543 5545 5546 5547 5549 5550 5551 5552 5553 5554 5554 5555 5554 5554 5553 5551 5550 5547 5544 5540 5536 5531 5526 5520 5516 5513 5512 5510 5509 5508 5507 5506 5505 5504 5503 5502 5500 5498 5495 5493 5492 5489 5487 5484 5481
5453 5454 5454 5455 5456 5457 5458 5459 5461 5463 5466 5470 5474 5478 5483 5488 5491 5493 5497 5500 5504 5507 5510 5513 5515 5518 5520 5522 5524 5526 5527 5528 5529 5531 5532 5534 5535 5536 5538 5539 5541 5542 5544 5545 5547 5548 5549 5550 5551 5552 5552 5552 5552 5551 5550 5549 5547 5544 5541 5538 5534 5529 5523 5518 5514 5511 5509 5508 5507 5506 5506 5505 5504 5503 5501 5500 5498 5495 5493 5491 5489 5487 5484 5481 5479
5451 5451 5452 5453 5454 5456 5456 5457 5459 5460 5462 5465 5469 5473 5478 5483 5487 5489 5492 5496 5499 5502 5505 5508 5511 5513 5516 5518 5519 5521 5522 5524 5526 5527 5529 5531 5532 5533 5535 5537 5539 5540 5542 5544 5545 5546 5547 5548 5549 5550 5550 5550 5550 5549 5548 5546 5544 5542 5539 5536 5531 5526 5521 5515 5512 5509 5508 5506 5505 5505 5504 5503 5502 5501 5500 5498 5496 5493 5492 5490 5488 5485 5482 5480 5477
5450 5449 5450 5452 5453 5455 5455 5456 5458 5459 5460 5463 5466 5469 5473 5478 5482 5486 5490 5493 5496 5498 5501 5504 5507 5509 5512 5514 5515 5517 5519 5521 5523 5524 5526 5528 5530 5532 5534 5535 5537 5539 5540 5542 5543 5544 5545 5547 5548 5548 5548 5548 5548 5547 5546 5544 5542 5539 5537 5534 5530 5525 5519 5514 5510 5508 5506 5505 5504 5503 5503 5502 5501 5499 5498 5496 5494 5492 5490 5488 5486 5484 5481 5478 5476
5450 5448 5449 5450 5453 5454 5455 5456 5457 5459 5460 5462 5464 5467 5471 5475 5479 5483 5487 5490 5493 5495 5498 5501 5504 5506 5508 5510 5512 5514 5516 5518 5520 5522 5524 5527 5528 5530 5532 5534 5535 5537 5538 5540 5541 5543 5544 5545 5546 5546 5546 5546 5546 5545 5543 5542 5540 5538 5535 5532 5528 5524 5518 5513 5509 5507 5505 5504 5503 5502 5501 5500 5499 5498 5497 5495 5493 5491 5489 5487 5485 5483 5480 5478 5475
5453 5451 5450 5451 5452 5454 5455 5456 5458 5459 5461 5462 5464 5467 5471 5475 5478 5481 5485 5488 5490 5493 5496 5499 5501 5504 5506 5508 5510 5512 5515 5517 5519 5521 5523 5525 5527 5529 5530 5532 5533 5535 5537 5538 5540 5541 5542 5543 5544 5544 5544 5544 5544 5543 5541 5540 5539 5536 5534 5531 5527 5522 5518 5514 5510 5506 5504 5503 5502 5501 5500 5499 5498 5496 5495 5493 5491 5490 5488 5486 5484 5482 5480 5478 5475
5457 5455 5454 5454 5454 5455 5456 5457 5459 5461 5462 5464 5466 5469 5472 5475 5478 5481 5484 5486 5489 5492 5495 5498 5500 5503 5505 5507 5509 5511 5514 5516 5518 5520 5522 5524 5526 5527 5529 5530 5532 5534 5535 5537 5538 5539 5540 5541 5541 5542 5542 5542 5541 5540 5540 5539 5537 5535 5533 5529 5526 5522 5518 5514 5510 5506 5503 5501 5501 5500 5499 5498 5496 5495 5494 5492 5491 5489 5487 5485 5483 5482 5479 5477 5475
5460 5460 5459 5459 5459 5459 5459 5461 5462 5463 5465 5466 5468 5471 5474 5476 5478 5481 5484 5487 5489 5492 5495 5498 5500 5502 5505 5507 5509 5511 5513 5515 5517 5519 5520 5522 5524 5526 5527 5529 5531 5532 5534 5535 5536 5538 5538 5539 5539 5540 5540 5540 5539 5538 5538 5537 5535 5533 5531 5528 5525 5521 5518 5514 5511 5507 5503 5501 5499 5499 5498 5497 5496 5495 5493 5492 5490 5488 5486 5484 5483 5481 5479 5477 5475
5464 5464 5463 5463 5463 5464 5464 5465 5466 5467 5468 5470 5472 5474 5476 5478 5480 5482 5485 5488 5490 5493 5495 5498 5500 5502 5504 5506 5508 5510 5512 5514 5516 5517 5519 5521 5522 5524 5526 5528 5529 5531 5532 5533 5535 5536 5536 5537 5537 5537 5538 5537 5537 5536 5536 5535 5533 5532 5530 5527 5524 5521 5517 5514 5511 5508 5504 5501 5499 5497 5497 5496 5495 5494 5493 5492 5490 5488 5486 5484 5483 5481 5479 5477 5476
5466 5466 5467 5467 5468 5468 5469 5469 5470 5471 5472 5474 5475 5477 5479 5481 5482 5485 5487 5489 5491 5493 5496 5498 5500 5502 5504 5505 5507 5509 5511 5512 5514 5516 5518 5520 5522 5523 5525 5526 5528 5529 5530 5532 5533 5533 5534 5534 5535 5535 5535 5535 5535 5534 5534 5533 5531 5530 5528 5526 5523 5521 5518 5515 5512 5509 5506 5502 5499 5497 5496 5495 5494 5493 5492 5491 5490 5488 5487 5485 5483 5482 5480 5478 5477
5470 5469 5470 5470 5471 5471 5472 5473 5473 5474 5476 5477 5478 5480 5481 5483 5484 5486 5488 5490 5492 5494 5496 5498 5499 5501 5503 5504 5506 5508 5510 5511 5513 5515 5517 5519 5521 5522 5524 5525 5526 5527 5529 5530 5531 5531 5532 5532 5533 5533 5533 5533 5533 5532 5532 5531 5529 5528 5527 5525 5523 5520 5518 5515 5513 5510 5507 5503 5500 5497 5496 5495 5494 5493 5492 5491 5490 5489 5487 5485 5484 5482 5481 5479 5478
5474 5474 5473 5473 5474 5474 5475 5476 5477 5478 5478 5479 5481 5482 5483 5484 5486 5487 5489 5491 5493 5494 5496 5497 5499 5500 5502 5504 5505 5507 5509 5511 5513 5515 5517 5518 5520 5521 5522 5524 5525 5526 5527 5528 5528 5529 5529 5530 5530 5531 5531 5531 5530 5530 5529 5529 5528 5526 5525 5523 5522 5520 5518 5515 5513 5510 5508 5505 5502 5499 5497 5495 5493 5492 5492 5491 5490 5488 5487 5485 5484 5483 5482 5480 5479
5477 5477 5477 5477 5477 5478 5478 5479 5480 5480 5481 5482 5483 5484 5485 5486 5487 5488 5490 5492 5493 5494 5496 5497 5498 5500 5502 5504 5506 5507 5509 5511 5513 5515 5516 5517 5519 5520 5521 5522 5523 5524 5525 5525 5526 5526 5527 5527 5528 5528 5528 5528 5528 5528 5527 5527 5526 5525 5523 5522 5521 5519 5517 5515 5513 5511 5508 5506 5503 5501 5498 5495 5493 5492 5491 5490 5489 5488 5487 5486 5484 5483 5482 5481 5480